K9JWM Weather Reports


Display with metric or nautical units.
time (UTC)temp
F
wind
direction
speed
MPH
gust
MPH
rain 1hr
in
rain 24hr
in
rain mn
in
humidity
%
barometer
mb
20260902224004 82 250 7.0 10.0 0.00 0.00 0.00 47 1010.2
20260902223048 83 223 2.0 3.0 0.00 0.00 0.00 42 1010.2
20260902223004 83 223 2.0 3.0 0.00 0.00 0.00 42 1010.2
20260902222004 82 279 2.0 7.0 0.00 0.00 0.00 47 1010.2
20260902221549 82 249 1.0 2.0 0.00 0.00 0.00 43 1010.2
20260902221005 83 156 2.0 7.0 0.00 0.00 0.00 48 1010.2
20260902220049 82 249 3.0 6.0 0.00 0.00 0.00 46 1010.1
20260902220004 82 249 3.0 6.0 0.00 0.00 0.00 46 1010.1
20260902215007 81 225 6.0 12.0 0.00 0.00 0.00 44 1010.2
20260902214550 81 229 8.0 12.0 0.00 0.00 0.00 49 1010.2
20260902214007 82 231 9.0 12.0 0.00 0.00 0.00 47 1010.2
20260902213049 82 229 1.0 2.0 0.00 0.00 0.00 43 1010.3
20260902213007 82 229 1.0 6.0 0.00 0.00 0.00 43 1010.3
20260902212005 81 260 5.0 9.0 0.00 0.00 0.00 47 1010.4
20260902211548 82 257 6.0 9.0 0.00 0.00 0.00 49 1010.4
20260902211005 82 246 5.0 9.0 0.00 0.00 0.00 44 1010.3
20260902210049 81 256 3.0 7.0 0.00 0.00 0.00 46 1010.4
20260902210005 81 256 3.0 8.0 0.00 0.00 0.00 46 1010.4
20260902204554 82 275 5.0 5.0 0.00 0.00 0.00 48 1010.5
20260902203048 81 239 8.0 8.0 0.00 0.00 0.00 47 1010.6
20260902203011 81 239 8.0 10.0 0.00 0.00 0.00 47 1010.6
20260902202005 81 244 2.0 7.0 0.00 0.00 0.00 43 1010.6
20260902201549 83 196 2.0 5.0 0.00 0.00 0.00 42 1010.5
20260902201005 81 112 2.0 9.0 0.00 0.00 0.00 43 1010.7
20260902200049 80 225 7.0 12.0 0.00 0.00 0.00 49 1010.8
20260902200004 80 225 5.0 12.0 0.00 0.00 0.00 49 1010.8
20260902195005 81 256 3.0 7.0 0.00 0.00 0.00 46 1010.9
20260902194548 80 211 2.0 3.0 0.00 0.00 0.00 47 1011.0
20260902194004 81 212 1.0 6.0 0.00 0.00 0.00 44 1011.0
20260902193049 82 251 1.0 3.0 0.00 0.00 0.00 45 1011.0
20260902193008 82 251 1.0 3.0 0.00 0.00 0.00 45 1011.0
20260902192004 80 28 0.0 7.0 0.00 0.00 0.00 47 1011.0
20260902191549 80 284 5.0 7.0 0.00 0.00 0.00 47 1011.0
20260902191005 79 243 3.0 7.0 0.00 0.00 0.00 47 1011.0
20260902190048 79 253 3.0 3.0 0.00 0.00 0.00 48 1011.0
20260902185004 80 66 0.0 3.0 0.00 0.00 0.00 47 1011.2
20260902184548 79 300 0.0 1.0 0.00 0.00 0.00 47 1011.1
20260902184004 79 13 1.0 7.0 0.00 0.00 0.00 49 1011.2
20260902183109 78 223 1.0 2.0 0.00 0.00 0.00 49 1011.1
20260902182004 78 231 4.0 10.0 0.00 0.00 0.00 51 1011.5
20260902181559 78 282 5.0 8.0 0.00 0.00 0.00 51 1011.6
20260902180049 77 262 1.0 5.0 0.00 0.00 0.00 54 1011.5
20260902180006 77 262 2.0 6.0 0.00 0.00 0.00 54 1011.5
20260902175004 77 263 2.0 3.0 0.00 0.00 0.00 56 1011.5
20260902174549 77 253 0.0 3.0 0.00 0.00 0.00 53 1011.5
20260902174004 76 293 1.0 2.0 0.00 0.00 0.00 52 1012.0
20260902173049 76 295 1.0 1.0 0.00 0.00 0.00 52 1012.2
20260902173004 76 295 2.0 5.0 0.00 0.00 0.00 52 1012.2
20260902172004 76 22 1.0 5.0 0.00 0.00 0.00 53 1012.0
20260902171550 76 262 0.0 2.0 0.00 0.00 0.00 52 1011.9
20260902170248 75 255 2.0 3.0 0.00 0.00 0.00 52 1011.7
20260902165005 75 248 1.0 6.0 0.00 0.00 0.00 55 1011.8
20260902164649 74 249 1.0 2.0 0.00 0.00 0.00 56 1011.8
20260902164004 75 243 6.0 9.0 0.00 0.00 0.00 60 1011.9
20260902163155 74 210 0.0 1.0 0.00 0.00 0.00 56 1011.8
20260902163007 74 210 1.0 8.0 0.00 0.00 0.00 56 1011.8
20260902162004 74 234 2.0 8.0 0.00 0.00 0.00 61 1011.8
20260902161553 74 219 5.0 5.0 0.00 0.00 0.00 60 1011.8
20260902161004 73 169 0.0 7.0 0.00 0.00 0.00 61 1011.8
20260902160049 72 239 3.0 3.0 0.00 0.00 0.00 64 1011.8
20260902155004 72 239 3.0 9.0 0.00 0.00 0.00 62 1011.9
20260902154534 72 228 5.0 3.0 0.00 0.00 0.00 65 1011.9
20260902154005 72 233 2.0 7.0 0.00 0.00 0.00 67 1011.9
20260902153031 71 223 2.0 3.0 0.00 0.00 0.00 67 1011.9
20260902153004 71 223 2.0 7.0 0.00 0.00 0.00 67 1011.9
20260902151532 70 237 3.0 3.0 0.00 0.00 0.00 71 1011.7
20260902151011 69 256 3.0 7.0 0.00 0.00 0.00 72 1011.8
20260902150031 69 245 3.0 3.0 0.00 0.00 0.00 74 1012.0
20260902150007 69 245 3.0 8.0 0.00 0.00 0.00 74 1012.0
20260902145004 69 224 5.0 10.0 0.00 0.00 0.00 75 1011.9
20260902144531 68 232 7.0 7.0 0.00 0.00 0.00 76 1012.0
20260902144004 68 241 6.0 10.0 0.00 0.00 0.00 76 1011.9
20260902143032 68 245 2.0 5.0 0.00 0.00 0.00 78 1012.0
20260902142004 67 248 6.0 12.0 0.00 0.00 0.00 77 1012.4
20260902141535 67 236 10.0 12.0 0.00 0.00 0.00 79 1012.5
20260902140031 66 223 3.0 5.0 0.00 0.00 0.00 81 1012.5
20260902140004 66 223 3.0 8.0 0.00 0.00 0.00 81 1012.5
20260902135007 66 227 6.0 9.0 0.00 0.00 0.00 81 1012.7
20260902134531 66 224 7.0 8.0 0.00 0.00 0.00 81 1012.8
20260902134004 65 236 5.0 8.0 0.00 0.00 0.00 83 1012.8
20260902133031 64 241 5.0 5.0 0.00 0.00 0.00 84 1013.0
20260902133004 64 241 5.0 7.0 0.00 0.00 0.00 84 1013.0
20260902132007 63 241 5.0 6.0 0.00 0.00 0.00 85 1012.9
20260902131531 63 222 3.0 5.0 0.00 0.00 0.00 86 1012.7
20260902131005 63 217 2.0 3.0 0.00 0.00 0.00 86 1012.6
20260902130031 62 209 2.0 3.0 0.00 0.00 0.00 87 1012.6
20260902130007 62 209 2.0 3.0 0.00 0.00 0.00 87 1012.6
20260902124530 61 209 0.0 0.0 0.00 0.00 0.00 87 1012.6
20260902124004 62 209 0.0 3.0 0.00 0.00 0.00 87 1012.6
20260902123032 61 182 0.0 2.0 0.00 0.00 0.00 87 1012.5
20260902122004 61 182 2.0 2.0 0.00 0.00 0.00 91 1012.3
20260902121530 60 182 0.0 0.0 0.00 0.00 0.00 89 1012.3
20260902121004 60 182 0.0 0.0 0.00 0.00 0.00 89 1011.9
20260902120031 59 182 0.0 0.0 0.00 0.00 0.00 89 1011.8
20260902120007 59 182 0.0 0.0 0.00 0.00 0.00 89 1011.8
20260902115005 59 182 0.0 1.0 0.00 0.00 0.00 89 1011.9
20260902114530 59 182 0.0 0.0 0.00 0.00 0.00 89 1011.8
20260902114004 59 182 0.0 0.0 0.00 0.00 0.00 89 1011.8
20260902113030 59 182 0.0 0.0 0.00 0.00 0.00 88 1011.6
20260902112004 59 182 0.0 0.0 0.00 0.00 0.00 89 1011.7
20260902111531 59 182 0.0 0.0 0.00 0.00 0.00 88 1011.5
20260902111003 60 182 0.0 0.0 0.00 0.00 0.00 87 1011.5
20260902110036 60 182 0.0 0.0 0.00 0.00 0.00 86 1011.6
20260902105007 60 182 0.0 2.0 0.00 0.00 0.00 85 1011.8
20260902104530 61 182 0.0 0.0 0.00 0.00 0.00 85 1011.6
20260902104004 61 182 0.0 1.0 0.00 0.00 0.00 84 1011.6
20260902103031 61 182 0.0 0.0 0.00 0.00 0.00 84 1011.8
20260902102011 61 182 0.0 0.0 0.00 0.00 0.00 83 1012.1
20260902101532 62 182 0.0 0.0 0.00 0.00 0.00 83 1012.1
20260902100032 62 182 0.0 0.0 0.00 0.00 0.00 81 1012.4
20260902095004 62 182 0.0 2.0 0.00 0.00 0.00 82 1012.6
20260902094535 63 182 0.0 2.0 0.00 0.00 0.00 81 1012.8
20260902094004 63 182 0.0 2.0 0.00 0.00 0.00 80 1012.8
20260902093031 63 182 0.0 1.0 0.00 0.00 0.00 80 1012.8
20260902093003 63 182 0.0 2.0 0.00 0.00 0.00 80 1012.8
20260902092007 62 182 0.0 2.0 0.00 0.00 0.00 81 1012.5
20260902091531 62 182 0.0 1.0 0.00 0.00 0.00 82 1012.3
20260902091004 62 257 1.0 2.0 0.00 0.00 0.00 82 1012.1
20260902090031 62 278 0.0 1.0 0.00 0.00 0.00 84 1012.0
20260902090005 62 278 0.0 1.0 0.00 0.00 0.00 84 1012.0
20260902085004 62 278 0.0 0.0 0.00 0.00 0.00 84 1011.9
20260902084536 62 278 0.0 0.0 0.00 0.00 0.00 83 1011.7
20260902084011 62 278 0.0 1.0 0.00 0.00 0.00 84 1011.9
20260902083031 62 278 0.0 2.0 0.00 0.00 0.00 83 1011.9
20260902083004 62 278 0.0 2.0 0.00 0.00 0.00 83 1011.9
20260902082007 62 278 1.0 2.0 0.00 0.00 0.00 83 1011.9
20260902081531 62 278 0.0 0.0 0.00 0.00 0.00 83 1011.8
20260902080032 62 278 0.0 0.0 0.00 0.00 0.00 83 1011.9
20260902080007 62 278 0.0 0.0 0.00 0.00 0.00 83 1011.9
20260902075011 63 278 0.0 2.0 0.00 0.00 0.00 81 1011.7
20260902074533 64 278 0.0 0.0 0.00 0.00 0.00 80 1011.6
20260902074004 63 278 0.0 1.0 0.00 0.00 0.00 82 1011.7
20260902073032 63 278 0.0 0.0 0.00 0.00 0.00 81 1011.8
20260902073003 63 278 0.0 0.0 0.00 0.00 0.00 81 1011.8
20260902072003 63 278 0.0 0.0 0.00 0.00 0.00 81 1012.1
20260902071530 62 279 0.0 0.0 0.00 0.00 0.00 81 1012.1
20260902071004 62 278 0.0 1.0 0.00 0.00 0.00 81 1011.8
20260902070032 62 278 0.0 0.0 0.00 0.00 0.00 80 1012.2
20260902070006 62 278 0.0 1.0 0.00 0.00 0.00 80 1012.2
20260902065007 63 278 0.0 2.0 0.00 0.00 0.00 80 1011.5
20260902064532 63 278 0.0 0.0 0.00 0.00 0.00 80 1011.8
20260902064003 63 278 0.0 0.0 0.00 0.00 0.00 80 1011.7
20260902063030 63 278 0.0 0.0 0.00 0.00 0.00 79 1011.8
20260902063004 63 278 0.0 1.0 0.00 0.00 0.00 79 1011.8
20260902062004 63 278 0.0 0.0 0.00 0.00 0.00 79 1012.0
20260902061532 63 278 0.0 0.0 0.00 0.00 0.00 79 1012.1
20260902060032 63 278 0.0 0.0 0.00 0.00 0.00 79 1012.1
20260902060011 63 278 0.0 0.0 0.00 0.00 0.00 79 1012.1
20260902054532 63 278 0.0 0.0 0.00 0.00 0.00 79 1012.0
20260902053032 63 278 0.0 0.0 0.00 0.00 0.00 78 1012.1
20260902053007 63 278 0.0 0.0 0.00 0.00 0.00 78 1012.1
20260902052004 63 278 0.0 2.0 0.00 0.00 0.00 77 1012.2
20260902051531 63 278 0.0 1.0 0.00 0.00 0.00 77 1012.2
20260902051011 64 278 0.0 2.0 0.00 0.00 0.00 77 1012.2
20260902050031 64 272 1.0 3.0 0.00 0.00 0.00 78 1012.3
20260902050007 64 272 1.0 3.0 0.00 0.00 0.00 78 1012.3
20260902045004 64 250 0.0 2.0 0.00 0.00 0.00 77 1012.3
20260902044531 63 250 0.0 1.0 0.00 0.00 0.00 78 1012.3
20260902044003 64 250 0.0 2.0 0.00 0.00 0.00 77 1012.3
20260902043031 64 249 0.0 2.0 0.00 0.00 0.00 76 1012.4
20260902043004 64 249 0.0 2.0 0.00 0.00 0.00 76 1012.4
20260902041536 64 249 0.0 1.0 0.00 0.00 0.00 76 1012.4
20260902041003 64 249 0.0 2.0 0.00 0.00 0.00 77 1012.4
20260902040030 64 249 1.0 1.0 0.00 0.00 0.00 76 1012.2
20260902040003 64 249 1.0 2.0 0.00 0.00 0.00 76 1012.2
20260902035007 65 249 0.0 2.0 0.00 0.00 0.00 72 1012.1
20260902034534 64 249 0.0 2.0 0.00 0.00 0.00 75 1012.1
20260902034004 64 249 0.0 2.0 0.00 0.00 0.00 76 1012.2
20260902033031 64 249 0.0 0.0 0.00 0.00 0.00 75 1012.0
20260902033003 64 249 0.0 2.0 0.00 0.00 0.00 75 1012.0
20260902032003 64 249 0.0 0.0 0.00 0.00 0.00 74 1012.0
20260902031531 64 249 0.0 0.0 0.00 0.00 0.00 74 1012.0
20260902030031 64 249 0.0 0.0 0.00 0.00 0.00 71 1012.1
20260902025004 64 249 0.0 0.0 0.00 0.00 0.00 69 1012.0
20260902024535 64 249 0.0 0.0 0.00 0.00 0.00 70 1011.8
20260902024011 65 249 0.0 2.0 0.00 0.00 0.00 70 1011.9
20260902023032 65 249 0.0 2.0 0.00 0.00 0.00 69 1012.0
20260902023004 65 249 0.0 3.0 0.00 0.00 0.00 69 1012.0
20260902022003 66 247 0.0 2.0 0.00 0.00 0.00 68 1012.0
20260902021530 66 247 0.0 2.0 0.00 0.00 0.00 68 1012.1
20260902021011 66 247 0.0 2.0 0.00 0.00 0.00 67 1012.1
20260902020031 67 247 0.0 0.0 0.00 0.00 0.00 66 1011.8
20260902020004 67 247 0.0 2.0 0.00 0.00 0.00 66 1011.8
20260902015004 67 247 0.0 0.0 0.00 0.00 0.00 64 1011.8
20260902014530 67 247 0.0 0.0 0.00 0.00 0.00 64 1011.6
20260902014003 68 247 0.0 0.0 0.00 0.00 0.00 62 1011.6
20260902013032 68 247 0.0 0.0 0.00 0.00 0.00 63 1011.4
20260902013004 68 247 0.0 0.0 0.00 0.00 0.00 63 1011.4
20260902012004 69 247 0.0 2.0 0.00 0.00 0.00 62 1011.3
20260902011530 69 247 0.0 0.0 0.00 0.00 0.00 61 1011.3
20260902011004 70 247 0.0 3.0 0.00 0.00 0.00 60 1011.3
20260902010031 73 246 1.0 3.0 0.00 0.00 0.00 56 1011.3
20260902010003 73 246 1.0 3.0 0.00 0.00 0.00 56 1011.3
20260902005004 74 252 3.0 5.0 0.00 0.00 0.00 52 1011.2
20260902004533 75 247 3.0 3.0 0.00 0.00 0.00 54 1011.2
20260902004003 75 244 5.0 7.0 0.00 0.00 0.00 53 1011.2
20260902003030 76 249 2.0 3.0 0.00 0.00 0.00 50 1011.1
20260902003003 76 249 3.0 8.0 0.00 0.00 0.00 50 1011.1
20260902002003 77 256 5.0 12.0 0.00 0.00 0.00 49 1011.2
20260902001531 77 246 5.0 6.0 0.00 0.00 0.00 51 1011.3
20260902001003 77 249 5.0 12.0 0.00 0.00 0.00 52 1011.3
20260902000030 77 249 6.0 10.0 0.00 0.00 0.00 48 1011.3
20260902000003 77 249 6.0 10.0 0.00 0.00 0.00 48 1011.3
20260901235010 77 257 4.0 7.0 0.00 0.00 0.00 50 1011.2
20260901234532 78 256 5.0 5.0 0.00 0.00 0.00 50 1011.1
20260901233033 78 245 5.0 6.0 0.00 0.00 0.00 50 1011.1
20260901233006 78 245 4.0 6.0 0.00 0.00 0.00 50 1011.1
20260901232005 78 249 5.0 9.0 0.00 0.00 0.00 50 1011.0
20260901231533 79 240 3.0 6.0 0.00 0.00 0.00 48 1010.8
20260901231005 79 257 4.0 8.0 0.00 0.00 0.00 49 1010.7
20260901230032 79 251 6.0 9.0 0.00 0.00 0.00 47 1010.6
20260901230008 79 251 5.0 13.0 0.00 0.00 0.00 47 1010.6
20260901225005 79 248 8.0 17.0 0.00 0.00 0.00 52 1010.6